Home   Weather   Toamasina   Past weeks

Flag for Madagascar Past Weather in Toamasina, Madagascar — Yesterday and Last 2 Weeks

Now
88 °F

Scattered clouds.


Feels Like: 100 °F
Forecast: 75 / 86 °F
Wind: 9 mph from Southeast

Location: Tamatave

Current Time: Feb 28, 2017 at 1:10:54 pm

Latest Report: Feb 28, 2017 at 12:00 pm


Visibility: N/A

Pressure: 29.89 "Hg

Humidity: 70%

Dew Point: 77 °F

Location of ToamasinaLocation

Past Weather in Toamasina — Graph

°F

Toamasina Temperature Yesterday

Maximum temperature yesterday: 88 °F (at 10:00 am)
Minimum temperature yesterday: 75 °F (at 2:00 am)
Average temperature yesterday: 83 °F

High & Low Weather Summary for the Past Weeks

 TemperatureHumidityPressure
High90 °F (Feb 13, 12:00 pm)100% (Feb 14, 6:00 am)30.01 "Hg (Feb 14, 6:00 am)
Low72 °F (Feb 18, 11:00 pm)59% (Feb 17, 2:00 pm)29.77 "Hg (Feb 20, 2:00 pm)
Average81 °F84%29.91 "Hg
* Reported Feb 13 12:00 pm — Feb 28 12:00 pm, Toamasina, Weather by CustomWeather, © 2017

Note: Actual official high and low records may vary slightly from our data, if they occured in-between our weather recording intervals... More about our weather records

Advertising

Toamasina Weather History for the Previous 24 Hours

Scroll right to see more
 ConditionsComfort  
Time TempWeatherWind HumidityBarometerVisibility
12:00 pm
Tue, Feb 28
88 °FScattered clouds.9 mph70%29.89 "HgN/A
11:00 am88 °FScattered clouds.7 mph70%29.92 "HgN/A
10:00 am88 °FScattered clouds.7 mph70%29.89 "HgN/A
9:00 am86 °FScattered clouds.2 mph75%29.92 "HgN/A
8:00 am82 °FPassing clouds.2 mph84%29.89 "HgN/A
7:00 am77 °FScattered clouds.2 mph94%29.89 "HgN/A
6:00 am75 °FPassing clouds.2 mph100%29.89 "HgN/A
5:00 am77 °FPassing clouds.No wind94%29.86 "HgN/A
4:00 am77 °FPassing clouds.No wind94%29.86 "HgN/A
3:00 am77 °FPassing clouds.No wind94%29.86 "HgN/A
2:00 am79 °FScattered showers. Partly cloudy.No wind94%29.89 "HgN/A
1:00 am79 °FScattered showers. Partly cloudy.No wind94%29.89 "HgN/A
12:00 am79 °FScattered showers. Partly cloudy.No wind94%29.89 "HgN/A
11:00 pm
Mon, Feb 27
81 °FThunderstorms. Passing clouds.No wind89%29.89 "HgN/A
10:00 pm81 °FThunderstorms. Passing clouds.No wind89%29.89 "HgN/A
9:00 pm81 °FThunderstorms. Passing clouds.No wind89%29.86 "HgN/A
8:00 pm84 °FThunderstorms. Passing clouds.7 mph79%29.86 "HgN/A
7:00 pm84 °FPassing clouds.7 mph84%29.80 "HgN/A
6:00 pm84 °FPassing clouds.9 mph79%29.77 "HgN/A
5:00 pm86 °FPassing clouds.12 mph75%29.77 "HgN/A
4:00 pm88 °FPassing clouds.14 mph75%29.77 "HgN/A
3:00 pm88 °FPassing clouds.14 mph75%29.77 "HgN/A
2:00 pm88 °FPassing clouds.14 mph70%29.77 "HgN/A
1:00 pm88 °FPassing clouds.14 mph75%29.77 "HgN/A
Weather by CustomWeather, © 2017

See weather overviewHow to use our weather pages